Location: Gensac
(43.2177°N, 1.1313°E)
Time: 20:08:06
(UTC+00:00)

IGS 5A - Pass Details

Date: 18 March 2026
Orbit: 551 x 554 km, 97.4° (Epoch: 8 January)

Event Time Altitude Azimuth Distance (km) Brightness Sun altitude
Rises 05:17:21 0° 18° (NNE) 2,735 7.2 -9.1°
Reaches altitude 10° 05:19:33 10° 24° (NNE) 1,836 6.4 -8.7°
Maximum altitude 05:23:24 47° 99° (E) 739 4.6 -8.0°
Drops below altitude 10° 05:27:12 10° 174° (S) 1,821 6.0 -7.3°
Sets 05:29:23 0° 180° (S) 2,710 6.8 -6.9°
